Home > Weather > Xi'an > Past weeks

Flag for China Weather for the Past 2 Weeks in Xi'an, Shaanxi, China

Now
34 °F

Light snow. Fog.


Feels Like: 24 °F
Forecast: 31 / 40 °F
Wind: 15 mph from West

Location: Xian/Xianyang

Current Time: Feb 12, 2016 at 6:44:12 PM

Latest Report: Feb 12, 2016 at 6:00 PM


Visibility: 2 mi

Pressure: 30.21 "Hg

Humidity: 70%

Dew point: 25 °F

Location of Xi'anLocation

Historic Weather in Xi'an — Graph

°F

Xi'an Temperature Yesterday

Maximum temperature yesterday: 55 °F (at 4:00 PM)
Minimum temperature yesterday: 30 °F (at 6:00 AM)
Average temperature yesterday: 45 °F

High & Low Weather Summary for the Past Weeks

 TemperatureHumidityPressure
High63 °F (Feb 8, 3:00 PM)100% (Jan 31, 5:00 AM)30.72 "Hg (Jan 31, 5:00 AM)
Low7 °F (Feb 1, 7:00 AM)14% (Feb 6, 5:00 PM)29.77 "Hg (Feb 10, 3:00 PM)
Average34 °F56%30.27 "Hg
* Reported Jan 28 5:00 PM — Feb 12 5:00 PM, Xi'an, Weather by CustomWeather, © 2016

Note: Actual official high and low records may vary slightly from our data, if they occured in-between our weather recording intervals... More about our weather records

Advertising

Xi'an Weather History for the Previous 24 Hours

 ConditionsComfort  
Time TempWeatherWind HumidityBarometerVisibility
5:00 PM
Fri, Feb 12
36 °FLight rain. More clouds than sun.15 mph70%30.15 "HgN/A
4:00 PM36 °FLight rain. More clouds than sun.17 mph70%30.09 "HgN/A
3:00 PM39 °FLight snow. More clouds than sun.17 mph61%30.04 "HgN/A
2:00 PM37 °FLight rain. More clouds than sun.15 mph70%30.04 "HgN/A
1:00 PM39 °FLight rain. More clouds than sun.15 mph61%30.01 "HgN/A
12:00 PM41 °FMore clouds than sun.13 mph61%30.01 "Hg4 mi
11:00 AM43 °FLight rain. More clouds than sun.6 mph66%30.01 "Hg4 mi
10:00 AM43 °FLight rain. More clouds than sun.8 mph71%29.98 "Hg4 mi
9:00 AM43 °FLight rain. Fog.8 mph81%29.95 "Hg1 mi
8:00 AM45 °FLight rain. Fog.No wind76%29.92 "Hg1 mi
7:00 AM45 °FFog.3 mph76%29.89 "Hg1 mi
6:00 AM43 °FFog.No wind81%29.86 "Hg1 mi
5:00 AM45 °FFog.1 mph76%29.86 "Hg1 mi
4:00 AM45 °FFog.3 mph76%29.86 "Hg1 mi
3:00 AM46 °FHaze.6 mph71%29.86 "Hg1 mi
2:00 AM48 °FHaze.10 mph66%29.86 "Hg1 mi
1:00 AM48 °FHaze.13 mph66%29.86 "Hg1 mi
12:00 AM48 °FHaze.13 mph66%29.86 "Hg1 mi
11:00 PM
Thu, Feb 11
48 °FHaze.10 mph66%29.83 "Hg1 mi
10:00 PM48 °FHaze.6 mph66%29.83 "Hg1 mi
9:00 PM48 °FHaze.3 mph66%29.83 "Hg1 mi
8:00 PM50 °FHaze.6 mph62%29.83 "Hg1 mi
7:00 PM52 °FHaze.8 mph58%29.80 "Hg1 mi
6:00 PM52 °FHaze.6 mph58%29.80 "Hg1 mi
Weather by CustomWeather, © 2016

See weather overviewHow to use our weather pages